Location: Gibsondale
(40.9931°N, 80.2478°W)
Time: 18:48:47
(UTC+00:00)

Aureole 3 Rocket - Pass Details

Date: 29 October 2020
Orbit: 399 x 1739 km, 82.5° (Epoch: 24 November)

Event Time Altitude Azimuth Distance (km) Brightness Sun altitude
Rises 23:23:52 0° 193° (SSW) 2,588 6.5 -12.6°
Reaches altitude 10° 23:25:43 10° 196° (SSW) 1,818 5.8 -13.0°
Maximum altitude 23:29:38 70° 280° (W) 712 3.5 -13.7°
Drops below altitude 10° 23:35:09 10° 4° (N) 2,525 6.1 -14.7°
Sets 23:38:05 0° 7° (N) 3,703 6.9 -15.3°
